Home   Weather   Santiago   Past weeks

Flag for Chile Past Weather in Santiago, Chile — Yesterday and Last 2 Weeks

Now
68 °F

Clear.


Feels Like: 68 °F
Forecast: 54 / 93 °F
Wind: 2 mph from North

Location: Pudahuel

Current Time: Jan 18, 2017 at 5:07:04 am

Latest Report: Jan 18, 2017 at 4:00 am


Visibility: 10 mi

Pressure: 29.89 "Hg (27.95 "Hg at 576m altitude)

Humidity: 49%

Dew Point: 48 °F

Location of SantiagoLocation

Past Weather in Santiago — Graph

°F

Santiago Temperature Yesterday

Maximum temperature yesterday: 93 °F (at 4:00 pm)
Minimum temperature yesterday: 59 °F (at 5:00 am)
Average temperature yesterday: 78 °F

High & Low Weather Summary for the Past Weeks

 TemperatureHumidityPressure
High95 °F (Jan 13, 4:00 pm)94% (Jan 4, 10:00 am)30.07 "Hg (Jan 4, 10:00 am)
Low55 °F (Jan 3, 8:00 am)16% (Jan 12, 4:00 pm)29.80 "Hg (Jan 14, 4:00 am)
Average74 °F40%29.92 "Hg
* Reported Jan 3 4:00 am — Jan 18 4:00 am, Santiago, Weather by CustomWeather, © 2017

Note: Actual official high and low records may vary slightly from our data, if they occured in-between our weather recording intervals... More about our weather records

Advertising

Santiago Weather History for the Previous 24 Hours

Scroll right to see more
 ConditionsComfort  
Time TempWeatherWind HumidityBarometerVisibility
4:00 am
Wed, Jan 18
68 °FClear.2 mph49%29.89 "Hg10 mi
3:00 am73 °FClear.7 mph38%29.89 "Hg10 mi
2:00 am75 °FClear.10 mph36%29.89 "Hg10 mi
1:00 am77 °FPassing clouds.10 mph36%29.89 "HgN/A
12:00 am79 °FClear.7 mph37%29.89 "Hg10 mi
11:00 pm
Tue, Jan 17
82 °FClear.5 mph32%29.89 "Hg10 mi
10:00 pm82 °FClear.13 mph32%29.89 "Hg10 mi
9:00 pm86 °FClear.13 mph29%29.86 "Hg10 mi
8:00 pm90 °FSunny.14 mph24%29.83 "Hg10 mi
7:00 pm91 °FSunny.13 mph23%29.83 "Hg10 mi
6:00 pm93 °FSunny.12 mph20%29.83 "Hg10 mi
5:00 pm93 °FPassing clouds.14 mph20%29.86 "HgN/A
4:00 pm93 °FPassing clouds.12 mph19%29.86 "HgN/A
3:00 pm91 °FPassing clouds.13 mph23%29.89 "HgN/A
2:00 pm90 °FPassing clouds.9 mph22%29.89 "HgN/A
1:00 pm86 °FPassing clouds.13 mph25%29.92 "HgN/A
12:00 pm82 °FPassing clouds.10 mph30%29.92 "HgN/A
11:00 am81 °FClear.3 mph32%29.92 "Hg5 mi
10:00 am73 °FClear.2 mph41%29.95 "Hg5 mi
9:00 am70 °FClear.1 mph46%29.95 "Hg5 mi
8:00 am61 °FClear.3 mph63%29.95 "Hg5 mi
7:00 am59 °FPassing clouds.3 mph68%29.95 "HgN/A
6:00 am61 °FPassing clouds.5 mph63%29.95 "HgN/A
5:00 am59 °FClear.2 mph68%29.95 "Hg10 mi
Weather by CustomWeather, © 2017

See weather overviewHow to use our weather pages